Buenos Aires, Argentina

10:36 PM America en Noviembre 16, 2018 (GMT +0000)
Jorge Newbery Aeroparque

Tiempo Historia de SABE - Noviembre, 2018

Change the Weather History Date:

Viernes, Noviembre 9, 2018

  Actual Average Record
Temperature  
Temperatura media 78 ° F -  
Temperatura máxima 84 ° F 78 ° F 84 ° F (2016)
Temperatura mínima 73 ° F 62 ° F 46 ° F (1999)
Cooling Degree Days 14    
Growing Degree Days 28 (Base 50)    
Moisture  
Punto de rocío 70 ° F    
Average Humidity 73    
Maximum Humidity 83    
Minimum Humidity 66    
Precipitación  
Precipitación 0.00 pul 0.13 pul - ()
Presión al nivel del mar  
Presión al nivel del mar 29.81 pul    
Viento  
Velocidad del viento 8 mph ()    
Velocidad máxima del viento 14 mph    
Max Gust Speed -    
Visibilidad 6.1 Millas    
Eventos      
Averages and records for this station are not official NWS values.
T = Trace of Precipitation, MM = Missing Value Source: Averaged Metar Reports

Daily Weather History Graph

Daily Weather History Graph

Search for Another Location

Airport or City:

Astronomía

Nov. 09, 2018 Salida Puesta
Hora real 5:44 AM -03 7:30 PM -03
Crepúsculo civil 5:17 AM -03 7:58 PM -03
Crepúsculo náutico 4:44 AM -03 8:31 PM -03
Crepúsculo astronómico 4:09 AM -03 9:06 PM -03
Luna 7:17 AM -03 (11/9) 9:32 PM -03 (11/9)
Horas de luz 14h 40m
Horas de luz
13h 45m
Creciente, 4% of the Moon is Illuminated
Nov 9
Creciente
Nov 15
Cuarto creciente
Nov 23
Luna llena
Nov 29
Cuarto menguante
Dic 7
Nueva

Hourly Weather History & Observations

Hora (-03) Temp. Índice de calor Punto de rocío Humedad Presión Visibilidad Wind Dir Velocidad del viento Velocidad de ráfagas Precip Eventos Condiciones
12:00 AM 75 ° F - 66 ° F 66% 29.87 pul 6 mi NNE 5.8 mph - -  
12:00 AM 75.2 ° F - 66.2 ° F 73% 29.86 pul - NNE 5.8 mph - N/A   Despejado
1:00 AM 75.2 ° F - 66.2 ° F 73% 29.86 pul - Norte 9.2 mph - N/A   Despejado
2:00 AM 75.2 ° F - 66.2 ° F 73% 29.86 pul - Norte 11.5 mph - N/A   Despejado
3:00 AM 74 ° F - 65 ° F 66% 29.87 pul 6 mi Norte 11.5 mph - -  
3:00 AM 75.2 ° F - 64.4 ° F 69% 29.86 pul - Norte 11.5 mph - N/A   Despejado
4:00 AM 73.4 ° F - 64.4 ° F 73% 29.86 pul - Norte 10.4 mph - N/A   Despejado
5:00 AM 73.4 ° F - 64.4 ° F 73% 29.86 pul - Norte 13.8 mph - N/A   Despejado
6:00 AM 73 ° F - 64 ° F 66% 29.88 pul 6 mi Norte 12.7 mph - -   Despejado
6:00 AM 73.4 ° F - 64.4 ° F 73% 29.86 pul - Norte 12.7 mph - N/A   Despejado
7:00 AM 73.4 ° F - 62.6 ° F 69% 29.89 pul - Norte 12.7 mph - N/A   Despejado
8:00 AM 73.4 ° F - 64.4 ° F 73% 29.89 pul - Norte 11.5 mph - N/A   Despejado
9:00 AM 75.2 ° F - 66.2 ° F 73% 29.89 pul - Norte 10.4 mph - N/A   Despejado
10:00 AM 77.0 ° F - 68.0 ° F 74% 29.89 pul - NNE 8.1 mph - N/A   Despejado
11:00 AM 78.8 ° F - 69.8 ° F 74% 29.86 pul - NNE 8.1 mph - N/A   Despejado
12:00 PM 81 ° F - 72 ° F 67% 29.87 pul 6 mi NE 5.8 mph - -   Nubes dispersas
12:00 PM 80.6 ° F 84.6 ° F 71.6 ° F 74% 29.86 pul 6.2 mi NE 5.8 mph - N/A   Parcialmente nublado
1:00 PM 82.4 ° F 88.2 ° F 73.4 ° F 74% 29.83 pul 6.2 mi NE 8.1 mph - N/A   Nubes dispersas
2:00 PM 84.2 ° F 90.9 ° F 73.4 ° F 70% 29.80 pul 6.2 mi NNE 8.1 mph - N/A   Nubes dispersas
3:00 PM 84 ° F - 75 ° F 68% 29.80 pul 6 mi NE 10.4 mph - -   Parcialmente nublado
3:00 PM 84.2 ° F 92.3 ° F 75.2 ° F 74% 29.77 pul 6.2 mi NE 10.4 mph - N/A   Nubes dispersas
4:00 PM 82.4 ° F 89.5 ° F 75.2 ° F 79% 29.74 pul 6.2 mi NE 6.9 mph - N/A   Muy nublado
5:00 PM 82.4 ° F 88.2 ° F 73.4 ° F 74% 29.71 pul 6.2 mi NE 8.1 mph - N/A   Nubes dispersas
6:00 PM 83 ° F - 75 ° F 71% 29.73 pul 6 mi NE 10.4 mph - -   Nubes dispersas
6:00 PM 82.4 ° F 88.2 ° F 73.4 ° F 74% 29.71 pul 6.2 mi ENE 8.1 mph - N/A   Muy nublado
7:00 PM 80.6 ° F 85.4 ° F 73.4 ° F 79% 29.68 pul - NE 5.8 mph - N/A   Despejado
8:00 PM 78.8 ° F - 71.6 ° F 78% 29.71 pul - Este 8.1 mph - N/A   Despejado
9:00 PM 79 ° F - 72 ° F 75% 29.70 pul 6 mi Este 10.4 mph - -   Nublado
9:00 PM 78.8 ° F - 71.6 ° F 78% 29.68 pul - Este 10.4 mph - N/A   Despejado
10:00 PM 78.8 ° F - 73.4 ° F 83% 29.68 pul - ENE 6.9 mph - N/A   Despejado
11:00 PM 78.8 ° F - 73.4 ° F 83% 29.71 pul - Variable 2.3 mph - N/A   Despejado